User: anonymous   Login
Location: Unspecified
(0.0000°N, 0.0000°E)
Time: 08:30:21
(UTC+00:00)
Language:

UME 1 - Orbit

View from above orbital plane
View from above orbital plane
View from above satellite
View from above satellite

Ground track
Ground track

The orbit data is extracted from the following two-line orbital elements,

1  8709U 76019A   19345.55147630 +.00000066 +00000-0 +13164-3 0  9990
2  8709 069.6752 054.2298 0014177 255.7558 204.7949 13.71425674190799
Epoch (UTC): 11 December 2019 13:14:07
Eccentricity: 0.0014177
inclination: 69.6752°
perigee height: 984 km
apogee height: 1005 km
right ascension of ascending node: 54.2298°
argument of perigee: 255.7558°
revolutions per day: 13.71425674
mean anomaly at epoch: 204.7949°
orbit number at epoch: 19079

The dashed part of the orbit path shows where the satellite is in the earth's shadow,  

DLR